Location: Cahas Mountain Overlook
(37.0833°N, 80.1000°W)
Time: 19:13:26
(UTC-04:00)

SR - Pass Details

Date: 11 February 2026
Orbit: 572 x 849 km, 66.7° (Epoch: 13 March)

Event Time Altitude Azimuth Distance (km) Brightness Sun altitude
Rises 16:05:59 0° 324° (NW) 3,109 ? 18.9°
Reaches altitude 10° 16:08:21 10° 317° (NW) 2,231 ? 18.5°
Maximum altitude 16:13:09 41° 248° (WSW) 1,096 ? 17.7°
Drops below altitude 10° 16:18:15 10° 179° (S) 2,376 ? 16.9°
Sets 16:20:52 0° 172° (S) 3,335 ? 16.4°
